Regional Weather Roundup
Issued by NWS

Home | Current Version | Previous Version | Text Only | Print | Product List | Glossary Off
Versions: 1 2 3 4 5 6 7 8 9 10 11 12 13 14 15 16 17 18 19 20 21 22 23 24 25 26 27 28

000
ASUS45 KBOU 210906
RWRCO

WEATHER ROUNDUP FOR COLORADO
NATIONAL WEATHER SERVICE DENVER/BOULDER CO
300 AM MDT MON APR 21 2014

NOTE: "FAIR" INDICATES FEW OR NO CLOUDS BELOW 12000 FEET WITH NO
SIGNIFICANT WEATHER AND/OR OBSTRUCTIONS TO VISIBILITY.

COZ001>005-013-030-031-211000-
...NORTHWEST COLORADO...

CITY           SKY/WX    TMP DP  RH WIND       PRES   REMARKS
CRAIG          PTCLDY    35  33  92 CALM      30.26R
HAYDEN         CLEAR     39  34  81 E12       30.28S
MEEKER         CLOUDY    39  32  76 CALM      30.26S
MOUNT WERNER   PTCLDY    37  25  60 W6        30.41S
STEAMBOAT SPGS PTCLDY    34  32  93 CALM      30.28S
WALDEN         CLEAR     30  27  86 E7        30.31R WCI  23
$$

COZ006>008-011-211000-
...WEST CENTRAL VALLEYS...

CITY           SKY/WX    TMP DP  RH WIND       PRES   REMARKS
GRAND JUNCTION CLEAR     44  39  82 CALM      30.19S
MONTROSE       CLEAR     44  34  67 S7        30.25R
EAGLE          CLEAR     36  32  87 CALM      30.32R
RIFLE          CLEAR     40  34  79 CALM      30.26R
DELTA          CLEAR     47  37  66 E5        30.22S
NUCLA            N/A     45  34  65 E12       30.26S
$$

COZ017>023-064>068-211000-
...SOUTHWEST COLORADO...

CITY           SKY/WX    TMP DP  RH WIND       PRES   REMARKS
DURANGO        PTCLDY    42  27  55 CALM      30.22S
CORTEZ         CLOUDY    39  30  70 NE8       30.22R
PAGOSA SPRINGS CLEAR     38  26  60 CALM      30.27S
TELLURIDE      CLEAR     37  28  70 E5        30.35R
WOLF CREEK PAS CLEAR     32  23  69 NE9       30.44S WCI  24
$$

COZ009-010-012-014-032>034-037-058>063-211000-
...CENTRAL COLORADO...

CITY           SKY/WX    TMP DP  RH WIND       PRES   REMARKS
ASPEN          PTCLDY    36  32  85 S6        30.31S
BUENA VISTA    MOCLDY    44  30  59 NW14      30.30R
COPPER MTN     CLEAR     34  23  64 NW3       30.44F
BERTHOUD PASS  CLOUDY    27  18  69 NE3       30.47S
COTTONWOOD PAS CLOUDY    43  28  56 CALM      30.37S
GUNNISON       CLEAR     36  27  69 CALM      30.34S
KREMMLING      CLEAR     32  28  86 CALM      30.34S
LEADVILLE      PTCLDY    26  22  84 E6        30.37F WCI  19
MONARCH PASS   PTCLDY    32  25  74 CALM      30.54S
SALIDA         PTCLDY    42  32  67 SW8       30.37R
SUNLIGHT       CLEAR     36  28  75 CALM      30.42S
WILKERSON PASS CLEAR     32  23  69 NE8       30.43S WCI  25
$$

COZ069>075-211000-
...SAN LUIS VALLEY/SANGRE DE CRISTO MOUNTAINS...

CITY           SKY/WX    TMP DP  RH WIND       PRES   REMARKS
ALAMOSA        PTCLDY    37  33  85 W6        30.26S
LA VETA PASS   PTCLDY    37  30  75 CALM      30.37R
SAGUACHE       PTCLDY    45  30  57 NW14G20   30.29S
$$

COZ035-036-038>040-211000-
...NORTHERN COLORADO FRONT RANGE...

CITY           SKY/WX    TMP DP  RH WIND       PRES   REMARKS
DENVER INTL AP MOCLDY    45  36  70 N9        30.22R
DMNS CITY PARK   N/A     51  35  53 N7G17     30.24R
AURORA         MOCLDY    50  37  62 W6        30.18S
FRONT RANGE AP NOT AVBL
ERIE MUNI ARPT PTCLDY    48  37  66 N9        30.25R
BOULDER MUN AP MOCLDY    50  36  57 N6        30.25R
CENTENNIAL     PTCLDY    48  34  58 NW12      30.23R
BROOMFIELD     PTCLDY    50  36  57 N15       30.25R
FORT COLLINS   PTCLDY    48  34  57 N9        30.26R
LONGMONT       PTCLDY    53  36  51 N10       30.26R
$$

COZ041-046-047-076>085-087-088-211000-
...PIKES PEAK/PALMER DIVIDE AND SOUTHERN FOOTHILLS...

CITY           SKY/WX    TMP DP  RH WIND       PRES   REMARKS
COLO. SPRINGS  MOCLDY    55  32  41 NW12      30.19R
A. F. ACADEMY  MOCLDY    42  35  75 N5        30.21R
ELLICOTT       NOT AVBL
FALCON         CLOUDY    52  31  44 NW8       30.22R
FORT CARSON    CLOUDY    52  36  54 NW9       30.17R
LIMON          CLEAR     48  35  60 N18       30.16R
MONUMENT HILL  CLOUDY    43  34  70 W7        30.24R
TRINIDAD       CLEAR     45  38  76 W13       30.17S
$$

COZ042>045-048>051-090-091-211000-
...NORTHEAST COLORADO...

CITY           SKY/WX    TMP DP  RH WIND       PRES   REMARKS
GREELEY ARPT   MOCLDY    46  34  61 N14       30.21R
AKRON          CLOUDY    46  35  65 N12       30.16R
BURLINGTON     CLEAR     48  38  68 NW12      30.08R
WRAY           CLEAR     51  38  60 N16       30.10R
STERLING       PTCLDY    52  34  50 N9        30.16R
HOLYOKE        CLEAR     52  34  50 N15       30.13R
FORT MORGAN    PTCLDY    49  32  51 N16       30.19R
$$

COZ086-089-092>099-211000-
...SOUTHEAST COLORADO...

CITY           SKY/WX    TMP DP  RH WIND       PRES   REMARKS
PUEBLO         CLOUDY    58  40  51 VRB3      30.12R
LA JUNTA       PTCLDY    52  41  66 W15       30.08S
LAMAR          CLEAR     49  45  86 SW3       30.03S
SPRINGFIELD      N/A     50  45  83 NW13      30.06R
$$



USA.gov is the U.S. government's official web portal to all federal, state and local government web resources and services.